[[{"header":{"parameterUnit":"m.s-1","parameterCategory":1,"la1":30.2991,"la2":30.254,"lo1":-89.0895,"lo2":-89.0444,"dy":0.0017,"dx":0.0017,"nx":28,"ny":28,"refTime":"2025-11-17T09:00:00:Z","depth":0,"parameterNumber":2,"parameterNumberName":"U-component_of_WINDS"},"data":[0,0,0,0,0,0,0,0,0,0,0,0,0,0,0,0,0,0,0,0,0,0,0,0,0,0,0,0,0,0,0,0,0,0,0,0,0,0,0,0,0,0,0,0,0,0,0,0,0,0,0,0,0,0,0,0,0,0,-0.888,-0.888,0,-0.8926,-0.8926,-0.8927,-0.894,-0.8939,-0.8939,-0.8939,-0.8987,-0.8989,-0.899,0,0,0,0,0,0,0,0,0,0,0,0,0,-0.8806,-0.8807,-0.888,-0.888,-0.8881,-0.8926,-0.8926,-0.8927,-0.894,-0.8939,-0.8939,-0.8939,-0.8987,-0.8989,-0.8991,0,0,0,0,0,0,0,0,0,0,0,0,0,-0.8843,-0.8807,-0.888,-0.8893,-0.8894,-0.8926,-0.8926,-0.8927,-0.894,-0.8939,-0.8939,-0.8939,-0.8986,-0.8989,-0.8991,-0.9013,0,0,-0.8998,-0.8999,0,0,0,0,0,0,0,0,-0.8841,-0.8846,-0.889,-0.8892,-0.8894,-0.8926,-0.8918,-0.8956,-0.894,-0.8922,-0.8939,-0.8938,-0.8968,-0.8971,-0.8981,-0.9015,-0.9017,-0.8998,-0.9,-0.9001,-0.9001,0,0,0,0,0,0,0,-0.8839,-0.8844,-0.8898,-0.8891,-0.8893,-0.8897,-0.8902,-0.8925,-0.8947,-0.8924,-0.8925,-0.893,-0.8968,-0.8979,-0.8982,-0.9018,-0.8998,-0.9,-0.9002,-0.9002,-0.9074,-0.9075,0,0,0,0,0,0,-0.8834,-0.8842,-0.8897,-0.8899,-0.8866,-0.8899,-0.8904,-0.8916,-0.8947,-0.8951,-0.893,-0.8931,-0.8975,-0.8979,-0.8984,-0.9012,-0.9,-0.9003,-0.9004,-0.9074,-0.9075,-0.9075,0,0,0,0,0,0,-0.8832,-0.8838,-0.8895,-0.8871,-0.8879,-0.89,-0.8914,-0.8918,-0.8928,-0.8951,-0.8956,-0.8937,-0.8975,-0.8981,-0.9006,-0.9014,-0.9004,-0.9006,-0.9073,-0.9074,-0.9075,-0.9069,0,0,0,0,0,0,-0.883,-0.8838,-0.8845,-0.8871,-0.888,-0.8915,-0.8915,-0.8919,-0.8931,-0.8932,-0.8958,-0.8962,-0.8975,-0.9002,-0.9008,-0.9017,-0.9008,-0.9073,-0.9074,-0.9075,-0.9068,-0.9069,-0.907,0,0,0,0,0,-0.8827,-0.8842,-0.8846,-0.8852,-0.889,-0.8915,-0.892,-0.8934,-0.8932,-0.8941,-0.8956,-0.8962,-0.9013,-0.9005,-0.9011,-0.9021,-0.9072,-0.9073,-0.9074,-0.9068,-0.9069,-0.907,0,0,0,0,0,0,-0.8817,-0.8846,-0.885,-0.8874,-0.8892,-0.8917,-0.8929,-0.8935,-0.8954,-0.8954,-0.8971,-0.8977,-0.9001,-0.9014,-0.9005,-0.9045,-0.9043,-0.9045,-0.9035,-0.9037,-0.9038,-0.9034,-0.901,0,0,0,0,0,-0.8818,-0.8835,-0.886,-0.8878,-0.8887,-0.8906,-0.8918,-0.8927,-0.8947,-0.8955,-0.8972,-0.8992,-0.9012,-0.9025,-0.9046,-0.9071,-0.9077,-0.9081,-0.9082,-0.9083,-0.9084,-0.9099,-0.9102,-0.9079,-0.9079,-0.9079,0,0,-0.8819,-0.8837,-0.8847,-0.8877,-0.8892,-0.8911,-0.8913,-0.8932,-0.8946,-0.8958,-0.8982,-0.8996,-0.9019,-0.9045,-0.9057,-0.9056,-0.9092,-0.9084,-0.9084,-0.9086,-0.9101,-0.9103,-0.9105,-0.908,-0.908,-0.9079,0,0,-0.8831,-0.8846,-0.8863,-0.8879,-0.8902,-0.8915,-0.8919,-0.8944,-0.8953,-0.8978,-0.8987,-0.9005,-0.904,-0.9056,-0.9069,-0.9089,-0.9095,-0.9095,-0.91,-0.9114,-0.9116,-0.9118,-0.9125,-0.9127,-0.9097,-0.9097,-0.9097,0,-0.883,-0.8857,-0.8872,-0.8891,-0.8904,-0.8915,-0.8934,-0.8948,-0.8977,-0.8986,-0.8985,-0.903,-0.9046,-0.9076,-0.9081,-0.9091,-0.9097,-0.9092,-0.9114,-0.9116,-0.9118,-0.9125,-0.9128,-0.9097,-0.9097,-0.9097,-0.9097,0,-0.8855,-0.8874,-0.8886,-0.8913,-0.8928,-0.8946,-0.8964,-0.8978,-0.8986,-0.8999,-0.9025,-0.9046,-0.907,-0.9078,-0.9087,-0.911,-0.9109,-0.9111,-0.9109,-0.912,-0.9127,-0.9129,-0.9097,-0.9097,-0.9097,-0.9097,0,0,-0.8861,-0.8896,-0.89,-0.8913,-0.894,-0.8955,-0.8975,-0.8999,-0.901,-0.903,-0.9048,-0.9078,-0.908,-0.9095,-0.9106,-0.9118,-0.9133,-0.9119,-0.912,-0.9121,-0.916,-0.9158,-0.9161,-0.9138,-0.9138,-0.9139,-0.9158,0,-0.8876,-0.8911,-0.8925,-0.8953,-0.8971,-0.8983,-0.9001,-0.902,-0.9033,-0.9052,-0.9067,-0.9088,-0.9089,-0.9098,-0.9112,-0.9128,-0.9141,-0.9127,-0.9155,-0.9155,-0.9147,-0.9164,-0.9162,-0.9179,-0.9161,-0.9162,-0.9162,0,-0.8898,-0.8917,-0.8947,-0.8973,-0.8981,-0.8996,-0.902,-0.9037,-0.9059,-0.9068,-0.9085,-0.9095,-0.9118,-0.9115,-0.9147,-0.9137,-0.9149,-0.9159,-0.916,-0.9163,-0.9159,-0.9167,-0.9185,-0.9188,-0.9166,-0.9166,-0.9166,0,-0.8899,-0.8933,-0.8955,-0.8966,-0.8996,-0.9007,-0.902,-0.9042,-0.9056,-0.9077,-0.9086,-0.911,-0.9123,-0.9141,-0.9158,-0.9155,-0.9188,-0.9187,-0.9197,-0.9197,-0.9203,-0.9202,-0.9222,-0.9212,-0.9212,-0.9212,-0.9211,0,-0.8914,-0.8932,-0.8956,-0.897,-0.8991,-0.9008,-0.9028,-0.9043,-0.9062,-0.908,-0.9092,-0.9109,-0.913,-0.915,-0.9163,-0.9188,-0.9193,-0.9202,-0.9205,-0.92,-0.9199,-0.9208,-0.9207,-0.9212,-0.9212,-0.9212,-0.9212,0,-0.8918,-0.8935,-0.896,-0.8987,-0.8994,-0.9009,-0.9032,-0.9046,-0.9061,-0.9083,-0.9089,-0.9112,-0.9136,-0.9155,-0.9186,-0.9195,-0.9221,-0.9225,-0.9213,-0.9215,-0.9224,-0.9223,-0.925,-0.9255,-0.9241,-0.9241,-0.9241,0,-0.8926,-0.894,-0.8968,-0.898,-0.8993,-0.9013,-0.9027,-0.9045,-0.906,-0.9087,-0.9098,-0.9123,-0.9143,-0.9181,-0.9201,-0.9225,-0.923,-0.9238,-0.9233,-0.9229,-0.923,-0.9228,-0.923,-0.9238,-0.9238,-0.9238,-0.9238,0,-0.8939,-0.8947,-0.8966,-0.8989,-0.9005,-0.9024,-0.9043,-0.9053,-0.9075,-0.9091,-0.9115,-0.9131,-0.9163,-0.9187,-0.9214,-0.9229,-0.9237,-0.924,-0.9243,-0.9238,-0.9231,-0.9235,-0.9214,-0.9239,-0.9239,-0.9239,-0.9239,-0.9239,-0.8945,-0.8958,-0.898,-0.9002,-0.9018,-0.9036,-0.9051,-0.9067,-0.9088,-0.9114,-0.9124,-0.9149,-0.9173,-0.9209,-0.9224,-0.9245,-0.9246,-0.9251,-0.9252,-0.9253,-0.9252,-0.9228,-0.925,-0.925,-0.925,-0.925,-0.925,0,-0.8958,-0.8973,-0.8992,-0.9019,-0.9036,-0.9043,-0.9065,-0.9079,-0.9101,-0.9121,-0.9141,-0.917,-0.9194,-0.9216,-0.9242,-0.9254,-0.9259,-0.926,-0.9259,-0.9263,-0.925,-0.9245,-0.9256,-0.9256,-0.9256,-0.9256,-0.9256,-0.9256,-0.8967,-0.8989,-0.9,-0.9032,-0.9047,-0.9071,-0.9083,-0.91,-0.9117,-0.9147,-0.9167,-0.9182,-0.9204,-0.9231,-0.9254,-0.926,-0.9269,-0.9269,-0.9276,-0.9264,-0.9263,-0.9263,-0.9257,-0.9271,-0.9271,-0.9287,-0.9287,-0.9287]},{"header":{"parameterUnit":"m.s-1","parameterCategory":1,"la1":30.2991,"la2":30.254,"lo1":-89.0895,"lo2":-89.0444,"dy":0.0017,"dx":0.0017,"nx":28,"ny":28,"refTime":"2025-11-17T09:00:00:Z","depth":0,"parameterNumber":3,"parameterNumberName":"V-component_of_WINDS"},"data":[0,0,0,0,0,0,0,0,0,0,0,0,0,0,0,0,0,0,0,0,0,0,0,0,0,0,0,0,0,0,0,0,0,0,0,0,0,0,0,0,0,0,0,0,0,0,0,0,0,0,0,0,0,0,0,0,0,0,1.4416,1.4417,0,1.4425,1.4425,1.4425,1.4434,1.4434,1.4435,1.4435,1.4442,1.4442,1.4442,0,0,0,0,0,0,0,0,0,0,0,0,0,1.4409,1.4409,1.4416,1.4417,1.4417,1.4425,1.4425,1.4425,1.4434,1.4434,1.4435,1.4435,1.4442,1.4442,1.4442,0,0,0,0,0,0,0,0,0,0,0,0,0,1.4414,1.4409,1.4416,1.4422,1.4423,1.4425,1.4425,1.4425,1.4434,1.4434,1.4435,1.4435,1.4442,1.4442,1.4442,1.4438,0,0,1.4442,1.4442,0,0,0,0,0,0,0,0,1.4414,1.4414,1.4421,1.4422,1.4423,1.4429,1.4425,1.4429,1.4434,1.443,1.4435,1.4435,1.4437,1.4438,1.4439,1.4438,1.4439,1.4442,1.4442,1.4442,1.4442,0,0,0,0,0,0,0,1.4413,1.4414,1.442,1.4421,1.4422,1.4425,1.4426,1.4426,1.4432,1.443,1.4431,1.4432,1.4438,1.4439,1.4439,1.4439,1.4442,1.4442,1.4442,1.4442,1.4437,1.4437,0,0,0,0,0,0,1.4412,1.4414,1.4419,1.442,1.4419,1.4424,1.4426,1.4427,1.4432,1.4433,1.4432,1.4432,1.4438,1.4439,1.4439,1.4436,1.4442,1.4442,1.4442,1.4437,1.4437,1.4437,0,0,0,0,0,0,1.4412,1.4413,1.4419,1.4417,1.4418,1.4424,1.4425,1.4427,1.4428,1.4433,1.4434,1.4432,1.4439,1.4439,1.4439,1.4436,1.4442,1.4442,1.4437,1.4437,1.4437,1.4429,0,0,0,0,0,0,1.4412,1.4412,1.4411,1.4417,1.4418,1.4418,1.4425,1.4427,1.4428,1.4429,1.4433,1.4434,1.4439,1.4439,1.4439,1.4436,1.4443,1.4438,1.4437,1.4437,1.4429,1.4428,1.4427,0,0,0,0,0,1.4411,1.4408,1.4411,1.4411,1.4416,1.4418,1.4419,1.4424,1.4428,1.4426,1.443,1.4434,1.4436,1.4438,1.4439,1.4436,1.4438,1.4437,1.4437,1.443,1.4428,1.4427,0,0,0,0,0,0,1.4401,1.4409,1.4412,1.441,1.4414,1.442,1.4418,1.4423,1.4425,1.4425,1.4432,1.4433,1.4432,1.4434,1.4436,1.4434,1.4438,1.4437,1.4432,1.4431,1.443,1.4429,1.4443,0,0,0,0,0,1.4398,1.4399,1.4406,1.4404,1.4406,1.4412,1.4413,1.4417,1.442,1.4421,1.4425,1.4428,1.443,1.443,1.4432,1.443,1.4431,1.4428,1.4427,1.4427,1.4426,1.4426,1.4425,1.4435,1.4435,1.4435,0,0,1.4393,1.4398,1.4398,1.4402,1.4405,1.4406,1.4413,1.4413,1.4414,1.4421,1.4422,1.4424,1.4428,1.4427,1.4427,1.4429,1.4424,1.4426,1.4425,1.4425,1.4425,1.4424,1.4424,1.4435,1.4435,1.4435,0,0,1.4384,1.4388,1.4387,1.439,1.4395,1.4399,1.4399,1.4405,1.4407,1.4407,1.4413,1.4414,1.4416,1.4419,1.4421,1.4415,1.4419,1.4415,1.441,1.441,1.4409,1.4408,1.4406,1.4406,1.4414,1.4414,1.4414,0,1.4377,1.4379,1.4386,1.4386,1.4388,1.4396,1.4395,1.4397,1.4402,1.4404,1.4406,1.441,1.4413,1.4413,1.4412,1.4412,1.4413,1.4414,1.4408,1.4408,1.4407,1.4406,1.4405,1.4414,1.4414,1.4414,1.4414,0,1.437,1.4372,1.437,1.4376,1.4378,1.4377,1.4384,1.4385,1.4389,1.4393,1.4394,1.4398,1.4401,1.4401,1.4405,1.4402,1.4404,1.4407,1.4412,1.4406,1.4404,1.4404,1.4413,1.4413,1.4414,1.4414,0,0,1.4355,1.4364,1.4364,1.4367,1.4373,1.4374,1.4375,1.4378,1.438,1.4383,1.4384,1.4386,1.439,1.4392,1.4396,1.4395,1.4391,1.4399,1.4399,1.4398,1.4389,1.4387,1.4386,1.4394,1.4394,1.4394,1.4389,0,1.4347,1.4349,1.4355,1.4355,1.4357,1.4364,1.4365,1.4369,1.4373,1.4375,1.4379,1.4381,1.4386,1.4387,1.4387,1.4392,1.4389,1.4392,1.4395,1.4395,1.4394,1.4385,1.4382,1.4378,1.4389,1.4389,1.4388,0,1.4339,1.4343,1.4343,1.435,1.4351,1.4351,1.4356,1.4358,1.4362,1.4365,1.4368,1.4373,1.4374,1.4379,1.4381,1.4382,1.4384,1.4386,1.4386,1.4387,1.4391,1.4386,1.4376,1.4376,1.4388,1.4388,1.4388,0,1.4328,1.4333,1.4334,1.4336,1.4345,1.4345,1.4348,1.4354,1.4356,1.4359,1.4361,1.4364,1.4367,1.4369,1.4375,1.4378,1.4377,1.4381,1.4379,1.4379,1.4379,1.4379,1.437,1.4379,1.4379,1.4379,1.4379,0,1.4319,1.4319,1.433,1.433,1.4331,1.4338,1.4338,1.4342,1.4347,1.4349,1.4355,1.4357,1.4364,1.4367,1.4371,1.4373,1.4373,1.4376,1.4377,1.4376,1.4375,1.4377,1.4377,1.4379,1.4379,1.4379,1.4379,0,1.4307,1.4314,1.4316,1.4324,1.4326,1.4326,1.4333,1.4334,1.4339,1.4341,1.4342,1.435,1.4353,1.4359,1.4364,1.4367,1.4367,1.4369,1.4366,1.4367,1.4365,1.4365,1.4357,1.4356,1.4366,1.4366,1.4365,0,1.4302,1.4302,1.431,1.4312,1.4316,1.4318,1.4321,1.4328,1.4331,1.4337,1.4337,1.4341,1.4345,1.435,1.4356,1.4359,1.4362,1.4359,1.4362,1.4361,1.4362,1.4362,1.4363,1.4358,1.4358,1.4357,1.4357,0,1.4291,1.4294,1.4298,1.4303,1.4306,1.431,1.4314,1.4315,1.4324,1.4326,1.433,1.4333,1.4338,1.4342,1.4347,1.4351,1.4356,1.4356,1.4356,1.4354,1.4353,1.4354,1.4364,1.4356,1.4356,1.4356,1.4357,1.4357,1.4282,1.4283,1.429,1.4293,1.4298,1.4302,1.4304,1.4309,1.4312,1.4318,1.4322,1.4326,1.4331,1.4339,1.4342,1.4345,1.4347,1.4347,1.4347,1.4347,1.4346,1.4352,1.4346,1.4346,1.4346,1.4346,1.4346,0,1.4272,1.4277,1.428,1.4287,1.429,1.4295,1.43,1.4303,1.4306,1.4311,1.4315,1.4319,1.4324,1.433,1.4335,1.4336,1.4338,1.4337,1.4337,1.4338,1.4344,1.4344,1.4335,1.4335,1.4335,1.4335,1.4335,1.4335,1.4267,1.427,1.4274,1.4279,1.4283,1.4287,1.429,1.4294,1.4298,1.4304,1.4307,1.4312,1.4318,1.4323,1.4327,1.4329,1.4331,1.4329,1.4331,1.4336,1.4337,1.4338,1.4338,1.4329,1.4329,1.4325,1.4325,1.4325]}]]